CAS-2T & KS-1Q

Last updated on Wed Dec 17 2025 00:03:12 GMT+0000 (Coordinated Universal Time)

1 41847U 16066G 25350.22581212 .00001089 00000+0 16361-3 0 9998 2 41847 98.4035 62.9322 0342992 324.5795 33.3041 14.44139367478389
UTC large
Height (km)
Speed (km/s)
/
Latitude / Longitude
Inclination (degrees)
Orbital Period (minutes)
Azimuth
Elevation
Range (km)
Doppler Factor

Next 0 passes for location: London (51.5072 / 0.1276)

Sorry there are no passes over London.